Hourly Data Report for February 21, 2004

SHERBROOKE A
QUEBEC

45°26'00.000" N
71°41'00.000" W
241.40 m
7028124
71610
YSC

Download Data

Hourly Data (February 2004)
Hourly Data Report for February 21, 2004
TIME
LST
Temp Definition
°C
Dew Point Definition
°C
Rel Hum Definition
%
Precip. Amount Definition
mm

Wind Dir Definition
10's deg

Wind Spd Definition
km/h
Visibility Definition
km
Stn Press Definition
kPa
Hmdx Definition


Wind Chill Definition


Weather Definition


00:00 -0.3 -5.6 67   10 15 3.1 97.61   -5 Snow
01:00 0.3 -6.2 62   14 9 15.0 97.56     Snow
02:00 0.1 -6.3 62   13 20 15.0 97.42      
03:00 0.6 -6.3 60   14 17 15.0 97.34      
04:00 -0.4 -5.8 67   14 26 3.5 97.27   -7 Snow
05:00 -0.6 -6.1 66   14 24 12.9 97.21   -7 Snow
06:00 -0.6 -6.8 63   15 13 15.0 97.17   -5 Snow
07:00 -0.2 -7.6 57   14 26 15.0 97.16   -6 Snow
08:00 -0.8 -6.7 64   14 30 3.2 97.16   -8 Snow
09:00 -0.4 -6.9 61   14 26 12.9 97.13   -7 Snow
10:00 -0.3 -6.4 63   14 24 6.4 97.14   -6 Snow
11:00 -0.2 -6.4 63   15 20 2.4 97.18   -5 Snow
12:00 -0.3 -6.1 65   14 20 9.7 97.17   -6 Snow
13:00 -0.3 -6.0 65   13 17 4.0 97.18   -5 Snow
14:00 -0.7 -5.1 72   7 7 19.3 97.16   -3 Snow
15:00 -0.2 -4.9 71   7 7 24.1 97.13   -3 Cloudy
16:00 -0.2 -5.7 66   5 7 19.3 97.16   -3 Snow
17:00 -0.7 -5.8 68   8 7 12.9 97.21   -3 Snow
18:00 -1.0 -5.1 74   5 4 3.2 97.26   -2 Snow
19:00 -1.2 -4.9 76   6 4 2.7 97.31   -3 Snow
20:00 -1.6 -5.2 76   4 6 4.0 97.31   -4 Snow
21:00 -1.9 -5.6 76   5 6 15.0 97.35   -4 Snow
22:00 -2.0 -5.9 75   6 9 9.7 97.38   -5 Snow
23:00 -2.1 -6.1 74   5 6 12.9 97.39   -4 Snow

Notes on Data Quality.

Legend

  • E = Estimated
  • M = Missing
  • NA = Not Available*
  • [empty] = Indicates an unobserved value
Date modified: